Time,TemperatureF,DewpointF,PressureIn,WindDirection,WindDirectionDegrees,WindSpeedMPH,WindSpeedGustMPH,Humidity,HourlyPrecipIn,Conditions,Clouds,dailyrainin,SoftwareType,DateUTC
2013-01-15 00:00:00,48.2,48.2,30.11,ENE,71,0.0,0.0,100,0.04,OVC,BKN,2.86,WeatherDisplay:10.37,2013-01-15 05:00:00,
2013-01-15 00:01:00,48.2,48.2,30.11,ENE,71,0.0,0.0,100,0.04, +RA,BKN,0.00,WeatherDisplay:10.37,2013-01-15 05:01:00,
2013-01-15 00:02:00,48.3,48.3,30.11,ENE,71,0.0,0.0,100,0.03, +RA,BKN,0.00,WeatherDisplay:10.37,2013-01-15 05:02:00,
2013-01-15 00:07:00,48.4,48.4,30.10,NNW,327,0.0,1.1,100,0.04, +RA,BKN,0.02,WeatherDisplay:10.37,2013-01-15 05:07:00,
2013-01-15 00:12:00,48.7,48.7,30.10,NNW,327,0.0,0.0,100,0.05, +RA,BKN,0.03,WeatherDisplay:10.37,2013-01-15 05:12:00,
2013-01-15 00:17:00,48.9,48.9,30.11,North,354,0.0,0.0,100,0.06, +RA,BKN,0.04,WeatherDisplay:10.37,2013-01-15 05:17:00,
2013-01-15 00:22:00,49.1,49.1,30.11,North,357,0.0,0.0,100,0.07, +RA,BKN,0.05,WeatherDisplay:10.37,2013-01-15 05:22:00,
2013-01-15 00:27:00,49.3,49.3,30.11,NE,35,0.0,0.0,100,0.08, +RA,BKN,0.06,WeatherDisplay:10.37,2013-01-15 05:27:00,
2013-01-15 00:33:00,49.6,49.6,30.10,NE,35,0.0,0.0,100,0.07, +RA,BKN,0.07,WeatherDisplay:10.37,2013-01-15 05:33:00,
2013-01-15 00:38:00,49.8,49.8,30.10,NE,35,0.0,0.0,100,0.08, +RA,BKN,0.08,WeatherDisplay:10.37,2013-01-15 05:38:00,
2013-01-15 00:43:00,49.9,49.9,30.10,NE,36,0.0,1.1,100,0.09, +RA,BKN,0.09,WeatherDisplay:10.37,2013-01-15 05:43:00,
2013-01-15 00:48:00,49.9,49.9,30.10,NE,36,0.0,0.0,100,0.10, +RA,BKN,0.10,WeatherDisplay:10.37,2013-01-15 05:48:00,
2013-01-15 00:53:00,49.8,49.8,30.10,NE,40,0.0,0.0,100,0.11, +RA,BKN,0.11,WeatherDisplay:10.37,2013-01-15 05:53:00,
2013-01-15 00:58:00,49.9,49.9,30.10,NE,40,0.0,0.0,100,0.11, +RA,BKN,0.11,WeatherDisplay:10.37,2013-01-15 05:58:00,
2013-01-15 01:03:00,49.9,49.9,30.10,NE,40,0.0,0.0,100,0.11,OVC,BKN,0.11,WeatherDisplay:10.37,2013-01-15 06:03:00,
2013-01-15 01:08:00,49.9,49.9,30.10,NE,40,0.0,0.0,100,0.09,OVC,BKN,0.11,WeatherDisplay:10.37,2013-01-15 06:08:00,
2013-01-15 01:13:00,49.7,49.7,30.10,NE,40,0.0,0.0,100,0.08,OVC,BKN,0.11,WeatherDisplay:10.37,2013-01-15 06:13:00,
2013-01-15 01:18:00,49.6,49.6,30.10,NE,40,0.0,0.0,100,0.07,OVC,BKN,0.11,WeatherDisplay:10.37,2013-01-15 06:18:00,
2013-01-15 01:23:00,49.5,49.5,30.10,NE,40,0.0,0.0,100,0.06,OVC,BKN,0.11,WeatherDisplay:10.37,2013-01-15 06:23:00,
2013-01-15 01:28:00,49.4,49.4,30.09,NE,40,0.0,1.1,100,0.05,OVC,BKN,0.11,WeatherDisplay:10.37,2013-01-15 06:28:00,
2013-01-15 01:33:00,49.5,49.5,30.10,NE,40,0.1,1.1,100,0.03,OVC,BKN,0.11,WeatherDisplay:10.37,2013-01-15 06:33:00,
2013-01-15 01:38:00,49.3,49.3,30.09,NE,40,0.0,0.0,100,0.04,RA,BKN,0.12,WeatherDisplay:10.37,2013-01-15 06:38:00,
2013-01-15 01:43:00,49.1,49.1,30.09,NE,40,0.0,0.0,100,0.04,RA,BKN,0.13,WeatherDisplay:10.37,2013-01-15 06:43:00,
2013-01-15 01:49:00,48.9,48.9,30.09,NE,40,0.0,0.0,100,0.04,RA,BKN,0.14,WeatherDisplay:10.37,2013-01-15 06:49:00,
2013-01-15 01:54:00,48.9,48.9,30.09,NE,40,0.0,0.0,100,0.03,RA,BKN,0.14,WeatherDisplay:10.37,2013-01-15 06:54:00,
2013-01-15 01:59:00,48.9,48.9,30.09,NE,40,0.0,0.0,100,0.04,RA,BKN,0.15,WeatherDisplay:10.37,2013-01-15 06:59:00,
2013-01-15 02:04:00,48.9,48.9,30.07,NE,40,0.0,0.0,100,0.04,-RA,BKN,0.15,WeatherDisplay:10.37,2013-01-15 07:04:00,
2013-01-15 02:09:00,48.9,48.9,30.07,NE,40,0.0,1.1,100,0.04,-RA,BKN,0.15,WeatherDisplay:10.37,2013-01-15 07:09:00,
2013-01-15 02:14:00,49.0,49.0,30.07,NE,40,0.0,0.0,100,0.05,-RA,BKN,0.16,WeatherDisplay:10.37,2013-01-15 07:14:00,
2013-01-15 02:19:00,49.0,49.0,30.07,NE,40,0.0,0.0,100,0.06,-RA,BKN,0.17,WeatherDisplay:10.37,2013-01-15 07:19:00,
2013-01-15 02:24:00,48.9,48.9,30.07,NE,40,0.0,0.0,100,0.06,-RA,BKN,0.17,WeatherDisplay:10.37,2013-01-15 07:24:00,
2013-01-15 02:29:00,48.9,48.9,30.07,SE,133,3.3,4.6,100,0.06,-RA,BKN,0.17,WeatherDisplay:10.37,2013-01-15 07:29:00,
2013-01-15 02:34:00,48.9,48.9,30.07,SE,132,0.0,0.0,100,0.06,-RA,BKN,0.17,WeatherDisplay:10.37,2013-01-15 07:34:00,
2013-01-15 02:39:00,49.1,49.1,30.07,SE,132,0.0,0.0,100,0.05,-RA,BKN,0.17,WeatherDisplay:10.37,2013-01-15 07:39:00,
2013-01-15 02:44:00,49.4,49.4,30.07,SE,132,0.0,0.0,100,0.05,-RA,BKN,0.18,WeatherDisplay:10.37,2013-01-15 07:44:00,
2013-01-15 02:49:00,49.7,49.7,30.07,SE,132,0.0,0.0,100,0.04,-RA,BKN,0.18,WeatherDisplay:10.37,2013-01-15 07:49:00,
2013-01-15 02:54:00,49.9,49.9,30.07,SE,132,0.0,0.0,100,0.05,-RA,BKN,0.19,WeatherDisplay:10.37,2013-01-15 07:54:00,
2013-01-15 02:59:00,50.0,50.0,30.07,SE,132,0.0,1.1,100,0.04,-RA,BKN,0.19,WeatherDisplay:10.37,2013-01-15 07:59:00,
2013-01-15 03:05:00,50.0,50.0,30.06,SE,132,0.0,2.3,100,0.05,RA,BKN,0.21,WeatherDisplay:10.37,2013-01-15 08:05:00,
2013-01-15 03:10:00,50.0,50.0,30.07,SE,131,0.0,0.0,100,0.06,RA,BKN,0.22,WeatherDisplay:10.37,2013-01-15 08:10:00,
2013-01-15 03:15:00,50.0,50.0,30.06,SE,131,0.0,0.0,100,0.07,RA,BKN,0.23,WeatherDisplay:10.37,2013-01-15 08:15:00,
2013-01-15 03:20:00,50.1,50.1,30.05,SE,131,0.0,0.0,100,0.07,RA,BKN,0.23,WeatherDisplay:10.37,2013-01-15 08:20:00,
2013-01-15 03:25:00,50.1,50.1,30.05,SE,131,0.0,0.0,100,0.07,RA,BKN,0.24,WeatherDisplay:10.37,2013-01-15 08:25:00,
2013-01-15 03:30:00,50.2,50.2,30.05,SE,131,0.0,0.0,100,0.07,RA,BKN,0.24,WeatherDisplay:10.37,2013-01-15 08:30:00,
2013-01-15 03:35:00,50.2,50.2,30.06,SE,131,0.0,0.0,100,0.08,RA,BKN,0.25,WeatherDisplay:10.37,2013-01-15 08:35:00,
2013-01-15 03:40:00,50.3,50.3,30.05,SE,131,0.5,2.3,100,0.08,RA,BKN,0.25,WeatherDisplay:10.37,2013-01-15 08:40:00,
2013-01-15 03:45:00,50.4,50.4,30.06,SE,131,0.0,1.1,100,0.08,RA,BKN,0.26,WeatherDisplay:10.37,2013-01-15 08:45:00,
2013-01-15 03:50:00,50.4,50.4,30.05,SE,127,0.1,1.1,100,0.09,RA,BKN,0.27,WeatherDisplay:10.37,2013-01-15 08:50:00,
2013-01-15 03:55:00,50.4,50.4,30.05,SE,126,0.0,0.0,100,0.08,RA,BKN,0.27,WeatherDisplay:10.37,2013-01-15 08:55:00,
2013-01-15 04:00:00,50.7,50.7,30.05,SE,126,0.0,0.0,100,0.09,RA,BKN,0.28,WeatherDisplay:10.37,2013-01-15 09:00:00,
2013-01-15 04:05:00,51.0,51.0,30.04,SE,127,0.0,1.1,100,0.08,RA,BKN,0.29,WeatherDisplay:10.37,2013-01-15 09:05:00,
2013-01-15 04:10:00,51.1,51.1,30.04,SE,126,0.0,0.0,100,0.07,RA,BKN,0.29,WeatherDisplay:10.37,2013-01-15 09:10:00,
2013-01-15 04:15:00,51.2,51.2,30.05,SE,127,0.3,1.1,100,0.07,RA,BKN,0.30,WeatherDisplay:10.37,2013-01-15 09:15:00,
2013-01-15 04:21:00,51.2,51.2,30.04,SE,126,0.0,1.1,100,0.08,RA,BKN,0.32,WeatherDisplay:10.37,2013-01-15 09:21:00,
2013-01-15 04:26:00,51.5,51.5,30.04,SE,126,0.0,0.0,100,0.09,RA,BKN,0.33,WeatherDisplay:10.37,2013-01-15 09:26:00,
2013-01-15 04:31:00,51.8,51.8,30.04,SE,126,0.0,0.0,100,0.10,RA,BKN,0.34,WeatherDisplay:10.37,2013-01-15 09:31:00,
2013-01-15 04:36:00,51.8,51.8,30.04,SE,128,0.8,0.0,100,0.10,RA,BKN,0.35,WeatherDisplay:10.37,2013-01-15 09:36:00,
2013-01-15 04:41:00,51.9,51.9,30.04,South,186,0.0,0.0,100,0.11,RA,BKN,0.36,WeatherDisplay:10.37,2013-01-15 09:41:00,
2013-01-15 04:46:00,52.1,52.1,30.05,South,186,0.0,0.0,100,0.11,RA,BKN,0.37,WeatherDisplay:10.37,2013-01-15 09:46:00,
2013-01-15 04:51:00,52.6,52.6,30.05,South,187,0.2,2.3,100,0.13,RA,BKN,0.40,WeatherDisplay:10.37,2013-01-15 09:51:00,
2013-01-15 04:56:00,53.0,53.0,30.06,SSW,193,0.0,0.0,100,0.15,RA,BKN,0.43,WeatherDisplay:10.37,2013-01-15 09:56:00,
2013-01-15 05:01:00,53.5,53.5,30.06,SSW,193,0.7,2.3,100,0.16, +RA,BKN,0.45,WeatherDisplay:10.37,2013-01-15 10:01:00,
2013-01-15 05:06:00,54.5,54.5,30.06,South,186,6.6,8.8,100,0.18, +RA,BKN,0.47,WeatherDisplay:10.37,2013-01-15 10:06:00,
2013-01-15 05:11:00,55.3,55.3,30.06,South,191,3.6,9.2,100,0.20, +RA,BKN,0.50,WeatherDisplay:10.37,2013-01-15 10:11:00,
2013-01-15 05:16:00,55.6,55.6,30.07,WSW,237,0.0,1.2,100,0.23, +RA,BKN,0.54,WeatherDisplay:10.37,2013-01-15 10:16:00,
2013-01-15 05:21:00,55.7,55.7,30.07,SW,216,8.1,9.2,100,0.24, +RA,BKN,0.57,WeatherDisplay:10.37,2013-01-15 10:21:00,
2013-01-15 05:26:00,55.8,55.8,30.07,SSW,209,4.5,9.2,100,0.26, +RA,BKN,0.59,WeatherDisplay:10.37,2013-01-15 10:26:00,
2013-01-15 05:31:00,55.9,55.9,30.07,WSW,238,0.1,4.6,100,0.27, +RA,BKN,0.62,WeatherDisplay:10.37,2013-01-15 10:31:00,
2013-01-15 05:37:00,56.0,56.0,30.07,SSW,212,3.8,9.2,100,0.29, +RA,BKN,0.65,WeatherDisplay:10.37,2013-01-15 10:37:00,
2013-01-15 05:42:00,56.1,56.1,30.07,SW,215,6.7,10.4,100,0.31, +RA,BKN,0.67,WeatherDisplay:10.37,2013-01-15 10:42:00,
2013-01-15 05:47:00,56.1,56.1,30.05,SSW,209,5.3,9.2,100,0.30, +RA,BKN,0.68,WeatherDisplay:10.37,2013-01-15 10:47:00,
2013-01-15 05:52:00,56.1,56.1,30.05,SSW,201,8.3,12.7,100,0.28, +RA,BKN,0.69,WeatherDisplay:10.37,2013-01-15 10:52:00,
2013-01-15 05:57:00,56.0,56.0,30.05,SW,214,11.3,13.8,100,0.28, +RA,BKN,0.71,WeatherDisplay:10.37,2013-01-15 10:57:00,
2013-01-15 06:02:00,56.0,56.0,30.05,SW,215,5.8,8.1,100,0.27,RA,BKN,0.72,WeatherDisplay:10.37,2013-01-15 11:02:00,
2013-01-15 06:07:00,55.9,55.9,30.05,SSW,210,6.1,7.3,100,0.26,RA,BKN,0.73,WeatherDisplay:10.37,2013-01-15 11:07:00,
2013-01-15 06:12:00,56.1,56.1,30.04,SW,215,0.0,1.2,100,0.23,RA,BKN,0.73,WeatherDisplay:10.37,2013-01-15 11:12:00,
2013-01-15 06:17:00,56.1,56.1,30.05,WSW,251,0.0,1.2,100,0.19,OVC,BKN,0.73,WeatherDisplay:10.37,2013-01-15 11:17:00,
2013-01-15 06:22:00,56.0,56.0,30.04,SW,235,0.0,0.0,100,0.16,OVC,BKN,0.73,WeatherDisplay:10.37,2013-01-15 11:22:00,
2013-01-15 06:27:00,55.9,55.9,30.05,SW,234,0.0,0.0,100,0.15,RA,BKN,0.74,WeatherDisplay:10.37,2013-01-15 11:27:00,
2013-01-15 06:32:00,55.8,55.8,30.05,SW,235,0.0,1.2,100,0.12,RA,BKN,0.74,WeatherDisplay:10.37,2013-01-15 11:32:00,
2013-01-15 06:37:00,55.8,55.8,30.05,SW,234,1.6,2.3,100,0.10,RA,BKN,0.75,WeatherDisplay:10.37,2013-01-15 11:37:00,
2013-01-15 06:42:00,55.9,55.9,30.06,SW,218,1.1,2.4,100,0.09,RA,BKN,0.77,WeatherDisplay:10.37,2013-01-15 11:42:00,
2013-01-15 06:47:00,56.2,56.2,30.06,SW,224,5.8,7.3,100,0.11,RA,BKN,0.79,WeatherDisplay:10.37,2013-01-15 11:47:00,
2013-01-15 06:53:00,56.3,56.3,30.05,SW,222,7.5,9.7,100,0.12,RA,BKN,0.82,WeatherDisplay:10.37,2013-01-15 11:53:00,
2013-01-15 06:58:00,56.5,56.5,30.05,WSW,241,2.1,9.2,100,0.12,RA,BKN,0.84,WeatherDisplay:10.37,2013-01-15 11:58:00,
2013-01-15 07:03:00,56.5,56.5,30.05,SW,222,3.0,5.8,100,0.13,RA,BKN,0.85,WeatherDisplay:10.37,2013-01-15 12:03:00,
2013-01-15 07:08:00,56.6,56.6,30.05,SW,222,0.0,0.0,100,0.14,RA,BKN,0.87,WeatherDisplay:10.37,2013-01-15 12:08:00,
2013-01-15 07:13:00,56.5,56.5,30.05,SW,222,0.0,0.0,100,0.15,RA,BKN,0.88,WeatherDisplay:10.37,2013-01-15 12:13:00,
2013-01-15 07:18:00,56.6,56.6,30.05,SW,222,0.0,1.1,100,0.16,RA,BKN,0.89,WeatherDisplay:10.37,2013-01-15 12:18:00,
2013-01-15 07:23:00,56.5,56.5,30.05,SW,222,0.0,0.0,100,0.18,RA,BKN,0.91,WeatherDisplay:10.37,2013-01-15 12:23:00,
2013-01-15 07:28:00,56.5,56.5,30.06,SW,222,0.0,0.0,100,0.19,RA,BKN,0.93,WeatherDisplay:10.37,2013-01-15 12:28:00,
2013-01-15 07:33:00,56.5,56.5,30.06,SSW,202,0.0,0.0,100,0.21,RA,BKN,0.95,WeatherDisplay:10.37,2013-01-15 12:33:00,
2013-01-15 07:38:00,56.5,56.5,30.06,SSW,202,0.0,0.0,100,0.22,RA,BKN,0.97,WeatherDisplay:10.37,2013-01-15 12:38:00,
2013-01-15 07:43:00,56.6,56.6,30.07,South,191,0.7,1.1,100,0.21,RA,BKN,0.98,WeatherDisplay:10.37,2013-01-15 12:43:00,
2013-01-15 07:48:00,56.5,56.5,30.07,South,190,3.3,4.6,100,0.21,RA,BKN,1.00,WeatherDisplay:10.37,2013-01-15 12:48:00,
2013-01-15 07:53:00,56.6,56.6,30.07,SSW,209,2.9,4.6,100,0.19,RA,BKN,1.01,WeatherDisplay:10.37,2013-01-15 12:53:00,
2013-01-15 07:58:00,56.7,56.7,30.07,SSW,201,4.9,8.5,100,0.18,RA,BKN,1.02,WeatherDisplay:10.37,2013-01-15 12:58:00,
2013-01-15 08:03:00,56.8,56.8,30.07,SSW,201,0.0,0.0,100,0.18,RA,BKN,1.03,WeatherDisplay:10.37,2013-01-15 13:03:00,
2013-01-15 08:09:00,56.8,56.8,30.07,SSW,201,0.0,0.0,100,0.16,RA,BKN,1.03,WeatherDisplay:10.37,2013-01-15 13:09:00,
2013-01-15 08:14:00,56.8,56.8,30.07,SSW,201,0.0,0.0,100,0.15,OVC,BKN,1.03,WeatherDisplay:10.37,2013-01-15 13:14:00,
2013-01-15 08:19:00,56.8,56.8,30.07,SSW,201,0.0,0.0,100,0.14,RA,BKN,1.04,WeatherDisplay:10.37,2013-01-15 13:19:00,
2013-01-15 08:24:00,56.7,56.7,30.08,SW,218,0.7,4.8,100,0.13,RA,BKN,1.04,WeatherDisplay:10.37,2013-01-15 13:24:00,
2013-01-15 08:29:00,56.6,56.6,30.08,WSW,238,3.7,7.3,100,0.11,OVC,BKN,1.04,WeatherDisplay:10.37,2013-01-15 13:29:00,
2013-01-15 08:34:00,56.6,56.6,30.08,SW,232,0.0,5.8,100,0.10,RA,BKN,1.05,WeatherDisplay:10.37,2013-01-15 13:34:00,
2013-01-15 08:39:00,56.5,56.5,30.08,SSW,207,2.9,5.8,100,0.09,RA,BKN,1.06,WeatherDisplay:10.37,2013-01-15 13:39:00,
2013-01-15 08:44:00,56.4,56.4,30.08,SW,214,0.0,3.5,100,0.09,RA,BKN,1.07,WeatherDisplay:10.37,2013-01-15 13:44:00,
2013-01-15 08:49:00,56.4,56.4,30.08,SW,214,0.0,0.0,100,0.07,RA,BKN,1.07,WeatherDisplay:10.37,2013-01-15 13:49:00,
2013-01-15 08:54:00,56.4,56.4,30.08,SW,216,0.0,0.0,100,0.07,RA,BKN,1.08,WeatherDisplay:10.37,2013-01-15 13:54:00,
2013-01-15 08:59:00,56.4,56.4,30.08,SW,220,0.2,3.5,100,0.06,RA,BKN,1.08,WeatherDisplay:10.37,2013-01-15 13:59:00,
2013-01-15 09:04:00,56.3,56.3,30.09,SSW,201,2.2,4.6,100,0.06,RA,BKN,1.09,WeatherDisplay:10.37,2013-01-15 14:04:00,
2013-01-15 09:09:00,56.3,56.3,30.09,SW,236,0.0,4.6,100,0.08,RA,BKN,1.11,WeatherDisplay:10.37,2013-01-15 14:09:00,
2013-01-15 09:14:00,56.3,56.3,30.08,WSW,245,6.5,9.7,100,0.08,RA,BKN,1.11,WeatherDisplay:10.37,2013-01-15 14:14:00,
2013-01-15 09:19:00,56.2,56.2,30.09,West,265,7.5,9.7,100,0.08,RA,BKN,1.12,WeatherDisplay:10.37,2013-01-15 14:19:00,
2013-01-15 09:25:00,56.1,56.1,30.08,West,278,1.2,4.6,100,0.08,RA,BKN,1.13,WeatherDisplay:10.37,2013-01-15 14:25:00,
2013-01-15 09:30:00,56.0,56.0,30.08,SW,225,0.0,0.0,100,0.09,RA,BKN,1.13,WeatherDisplay:10.37,2013-01-15 14:30:00,
2013-01-15 09:35:00,55.9,55.9,30.08,SSW,198,0.0,2.3,100,0.09,RA,BKN,1.14,WeatherDisplay:10.37,2013-01-15 14:35:00,
2013-01-15 09:40:00,55.9,55.9,30.08,WSW,242,0.3,3.5,100,0.08,RA,BKN,1.14,WeatherDisplay:10.37,2013-01-15 14:40:00,
2013-01-15 09:45:00,55.8,55.8,30.08,SW,230,0.1,1.1,100,0.07,OVC,BKN,1.14,WeatherDisplay:10.37,2013-01-15 14:45:00,
2013-01-15 09:50:00,55.8,55.8,30.08,SW,230,5.2,6.9,100,0.07,OVC,BKN,1.14,WeatherDisplay:10.37,2013-01-15 14:50:00,
2013-01-15 09:55:00,55.7,55.7,30.08,SSW,203,5.7,9.2,100,0.06,OVC,BKN,1.14,WeatherDisplay:10.37,2013-01-15 14:55:00,
2013-01-15 10:00:00,55.7,55.7,30.08,SSW,212,0.0,0.0,100,0.06,OVC,BKN,1.14,WeatherDisplay:10.37,2013-01-15 15:00:00,
2013-01-15 10:05:00,55.7,55.7,30.08,WSW,239,0.0,3.5,100,0.05,OVC,BKN,1.14,WeatherDisplay:10.37,2013-01-15 15:05:00,
2013-01-15 10:10:00,55.6,55.6,30.08,WSW,249,0.3,2.4,100,0.04,RA,BKN,1.15,WeatherDisplay:10.37,2013-01-15 15:10:00,
2013-01-15 10:15:00,55.6,55.6,30.08,WSW,249,0.3,3.5,100,0.04,RA,BKN,1.15,WeatherDisplay:10.37,2013-01-15 15:15:00,
2013-01-15 10:20:00,55.6,55.6,30.08,SW,232,0.0,4.6,100,0.03,OVC,BKN,1.15,WeatherDisplay:10.37,2013-01-15 15:20:00,
2013-01-15 10:25:00,55.6,55.6,30.08,SW,232,4.2,4.2,100,0.03,RA,BKN,1.16,WeatherDisplay:10.37,2013-01-15 15:25:00,
2013-01-15 10:31:00,55.6,55.6,30.08,SSW,199,1.4,4.6,100,0.04,RA,BKN,1.17,WeatherDisplay:10.37,2013-01-15 15:31:00,
2013-01-15 10:36:00,55.7,55.7,30.08,SW,223,3.0,4.6,100,0.03,RA,BKN,1.17,WeatherDisplay:10.37,2013-01-15 15:36:00,
2013-01-15 10:41:00,55.7,55.7,30.08,SW,225,0.1,1.1,100,0.03,OVC,BKN,1.17,WeatherDisplay:10.37,2013-01-15 15:41:00,
2013-01-15 10:46:00,55.8,55.8,30.08,WSW,245,1.1,4.8,100,0.04,RA,BKN,1.18,WeatherDisplay:10.37,2013-01-15 15:46:00,
2013-01-15 10:51:00,55.8,55.8,30.08,SW,234,2.7,6.1,100,0.04,RA,BKN,1.18,WeatherDisplay:10.37,2013-01-15 15:51:00,
2013-01-15 10:56:00,55.8,55.8,30.08,SW,220,3.3,5.8,100,0.04,RA,BKN,1.19,WeatherDisplay:10.37,2013-01-15 15:56:00,
2013-01-15 11:01:00,55.8,55.8,30.07,WSW,244,1.3,5.8,100,0.05,RA,BKN,1.20,WeatherDisplay:10.37,2013-01-15 16:01:00,
2013-01-15 11:06:00,55.9,55.9,30.07,SW,231,0.3,3.5,100,0.06,RA,BKN,1.20,WeatherDisplay:10.37,2013-01-15 16:06:00,
2013-01-15 11:11:00,55.9,55.9,30.07,SW,233,1.1,4.6,100,0.07,RA,BKN,1.21,WeatherDisplay:10.37,2013-01-15 16:11:00,
2013-01-15 11:16:00,55.9,55.9,30.07,SW,229,0.5,6.1,100,0.07,RA,BKN,1.21,WeatherDisplay:10.37,2013-01-15 16:16:00,
2013-01-15 11:21:00,55.9,55.9,30.07,SW,215,0.1,2.3,100,0.08,RA,BKN,1.22,WeatherDisplay:10.37,2013-01-15 16:21:00,
2013-01-15 11:27:00,55.9,55.9,30.06,SW,231,0.0,0.0,100,0.07,RA,BKN,1.22,WeatherDisplay:10.37,2013-01-15 16:27:00,
2013-01-15 11:32:00,55.9,55.9,30.06,SW,235,0.2,2.3,100,0.08,RA,BKN,1.23,WeatherDisplay:10.37,2013-01-15 16:32:00,
2013-01-15 11:37:00,55.9,55.9,30.06,SW,236,0.0,0.0,100,0.08,RA,BKN,1.23,WeatherDisplay:10.37,2013-01-15 16:37:00,
2013-01-15 11:42:00,56.0,56.0,30.05,SW,236,0.0,1.1,100,0.08,RA,BKN,1.24,WeatherDisplay:10.37,2013-01-15 16:42:00,
2013-01-15 11:47:00,56.0,56.0,30.05,SW,230,2.5,4.6,100,0.08,RA,BKN,1.25,WeatherDisplay:10.37,2013-01-15 16:47:00,
2013-01-15 11:52:00,55.9,55.9,30.05,SW,230,0.0,3.5,100,0.08,RA,BKN,1.25,WeatherDisplay:10.37,2013-01-15 16:52:00,
2013-01-15 11:57:00,55.9,55.9,30.05,SW,230,0.0,0.0,100,0.09,RA,BKN,1.26,WeatherDisplay:10.37,2013-01-15 16:57:00,
2013-01-15 12:02:00,55.9,55.9,30.05,SW,230,0.0,0.0,100,0.08, +DZ,BKN,1.26,WeatherDisplay:10.37,2013-01-15 17:02:00,
2013-01-15 12:07:00,55.9,55.9,30.04,SW,230,0.0,0.0,100,0.07, +DZ,BKN,1.27,WeatherDisplay:10.37,2013-01-15 17:07:00,
2013-01-15 12:12:00,55.9,55.9,30.04,SW,230,0.0,0.0,100,0.08, +DZ,BKN,1.28,WeatherDisplay:10.37,2013-01-15 17:12:00,
2013-01-15 12:17:00,55.9,55.9,30.03,SW,230,0.0,0.0,100,0.08, +DZ,BKN,1.29,WeatherDisplay:10.37,2013-01-15 17:17:00,
2013-01-15 12:22:00,55.9,55.9,30.03,SW,230,0.0,0.0,100,0.07, +DZ,BKN,1.29,WeatherDisplay:10.37,2013-01-15 17:22:00,
2013-01-15 12:27:00,55.9,55.9,30.03,SW,230,0.0,0.0,100,0.07, +DZ,BKN,1.29,WeatherDisplay:10.37,2013-01-15 17:27:00,
2013-01-15 12:32:00,55.9,55.9,30.03,SW,230,0.0,0.0,100,0.07, +DZ,BKN,1.30,WeatherDisplay:10.37,2013-01-15 17:32:00,
2013-01-15 12:38:00,55.9,55.9,30.02,SW,230,0.0,0.0,100,0.08, +DZ,BKN,1.31,WeatherDisplay:10.37,2013-01-15 17:38:00,
2013-01-15 12:43:00,55.9,55.9,30.02,SW,230,0.0,0.0,100,0.07, +DZ,BKN,1.32,WeatherDisplay:10.37,2013-01-15 17:43:00,
2013-01-15 12:48:00,55.9,55.9,30.01,SW,230,0.0,0.0,100,0.07, +DZ,BKN,1.32,WeatherDisplay:10.37,2013-01-15 17:48:00,
2013-01-15 12:53:00,55.9,55.9,30.01,SW,230,0.0,0.0,100,0.08, +DZ,BKN,1.33,WeatherDisplay:10.37,2013-01-15 17:53:00,
2013-01-15 12:58:00,55.9,55.9,30.00,SW,230,0.0,0.0,100,0.08, +DZ,BKN,1.34,WeatherDisplay:10.37,2013-01-15 17:58:00,
2013-01-15 13:03:00,55.8,55.8,30.00,SW,230,0.0,0.0,100,0.08, +DZ,BKN,1.34,WeatherDisplay:10.37,2013-01-15 18:03:00,
2013-01-15 13:08:00,55.5,55.5,29.99,SW,230,0.0,0.0,100,0.07, +DZ,BKN,1.34,WeatherDisplay:10.37,2013-01-15 18:08:00,
2013-01-15 13:13:00,55.4,55.4,29.99,SW,230,0.0,0.0,100,0.07, +DZ,BKN,1.35,WeatherDisplay:10.37,2013-01-15 18:13:00,
2013-01-15 13:18:00,55.4,55.4,29.99,SW,230,0.0,0.0,100,0.06, +DZ,BKN,1.35,WeatherDisplay:10.37,2013-01-15 18:18:00,
2013-01-15 13:23:00,55.4,55.4,29.99,SW,230,0.0,0.0,100,0.07, +DZ,BKN,1.36,WeatherDisplay:10.37,2013-01-15 18:23:00,
2013-01-15 13:28:00,55.1,55.1,29.99,SW,230,1.1,1.2,100,0.08, +DZ,BKN,1.37,WeatherDisplay:10.37,2013-01-15 18:28:00,
2013-01-15 13:33:00,54.7,54.7,29.99,SW,229,0.0,0.0,100,0.08, +DZ,BKN,1.39,WeatherDisplay:10.37,2013-01-15 18:33:00,
2013-01-15 13:38:00,54.7,54.7,29.98,SW,229,0.0,0.0,100,0.09, +DZ,BKN,1.40,WeatherDisplay:10.37,2013-01-15 18:38:00,
2013-01-15 13:43:00,54.8,54.8,29.98,SW,229,0.0,0.0,100,0.10, +DZ,BKN,1.41,WeatherDisplay:10.37,2013-01-15 18:43:00,
2013-01-15 13:48:00,54.7,54.7,29.98,SW,229,0.1,1.1,100,0.11, +DZ,BKN,1.43,WeatherDisplay:10.37,2013-01-15 18:48:00,
2013-01-15 13:53:00,54.4,54.4,29.98,SW,229,0.0,0.0,100,0.10, +DZ,BKN,1.44,WeatherDisplay:10.37,2013-01-15 18:53:00,
2013-01-15 13:59:00,54.2,54.2,29.97,SW,229,0.0,0.0,100,0.10, +DZ,BKN,1.44,WeatherDisplay:10.37,2013-01-15 18:59:00,
2013-01-15 14:04:00,54.0,54.0,29.97,SW,229,0.0,0.0,100,0.11,RA,BKN,1.45,WeatherDisplay:10.37,2013-01-15 19:04:00,
2013-01-15 14:09:00,53.8,53.8,29.97,SW,229,0.0,0.0,100,0.11,RA,BKN,1.45,WeatherDisplay:10.37,2013-01-15 19:09:00,
2013-01-15 14:14:00,53.6,53.6,29.97,NW,306,0.0,0.0,100,0.11,RA,BKN,1.46,WeatherDisplay:10.37,2013-01-15 19:14:00,
2013-01-15 14:19:00,53.6,53.6,29.97,NW,306,0.0,0.0,100,0.12,RA,BKN,1.47,WeatherDisplay:10.37,2013-01-15 19:19:00,
2013-01-15 14:24:00,53.6,53.6,29.97,NW,305,0.4,2.3,100,0.12,RA,BKN,1.49,WeatherDisplay:10.37,2013-01-15 19:24:00,
2013-01-15 14:29:00,53.6,53.6,29.97,NW,304,0.1,1.1,100,0.12,RA,BKN,1.49,WeatherDisplay:10.37,2013-01-15 19:29:00,
2013-01-15 14:34:00,53.6,53.6,29.97,NW,304,0.0,0.0,100,0.11,RA,BKN,1.50,WeatherDisplay:10.37,2013-01-15 19:34:00,
2013-01-15 14:39:00,53.6,53.6,29.97,NW,304,0.0,0.0,100,0.12,RA,BKN,1.52,WeatherDisplay:10.37,2013-01-15 19:39:00,
2013-01-15 14:44:00,53.8,53.8,29.97,NNW,345,0.0,0.0,100,0.11,RA,BKN,1.53,WeatherDisplay:10.37,2013-01-15 19:44:00,
2013-01-15 14:49:00,54.0,54.0,29.97,NNW,345,0.0,0.0,100,0.10,RA,BKN,1.54,WeatherDisplay:10.37,2013-01-15 19:49:00,
2013-01-15 14:54:00,54.2,54.2,29.97,NNW,345,0.0,0.0,100,0.12,RA,BKN,1.55,WeatherDisplay:10.37,2013-01-15 19:54:00,
2013-01-15 14:59:00,54.5,54.5,29.97,NNW,345,0.0,1.1,100,0.12,RA,BKN,1.56,WeatherDisplay:10.37,2013-01-15 19:59:00,
2013-01-15 15:04:00,54.8,54.8,29.97,NNW,345,0.0,0.0,100,0.12,RA,BKN,1.57,WeatherDisplay:10.37,2013-01-15 20:04:00,
2013-01-15 15:09:00,55.0,55.0,29.97,NNW,345,0.0,0.0,100,0.13,RA,BKN,1.58,WeatherDisplay:10.37,2013-01-15 20:09:00,
2013-01-15 15:15:00,55.4,55.4,29.97,West,271,0.0,2.3,100,0.13,RA,BKN,1.59,WeatherDisplay:10.37,2013-01-15 20:15:00,
2013-01-15 15:20:00,55.6,55.6,29.97,WSW,253,0.0,0.0,100,0.13,RA,BKN,1.60,WeatherDisplay:10.37,2013-01-15 20:20:00,
2013-01-15 15:25:00,55.6,55.6,29.97,WSW,249,0.0,2.3,100,0.14,RA,BKN,1.62,WeatherDisplay:10.37,2013-01-15 20:25:00,
2013-01-15 15:30:00,55.6,55.6,29.97,WSW,249,0.0,0.0,100,0.15,RA,BKN,1.64,WeatherDisplay:10.37,2013-01-15 20:30:00,
2013-01-15 15:35:00,55.7,55.7,29.97,WSW,249,0.0,0.0,100,0.15,RA,BKN,1.65,WeatherDisplay:10.37,2013-01-15 20:35:00,
2013-01-15 15:40:00,55.8,55.8,29.97,WSW,249,0.0,0.0,100,0.14,RA,BKN,1.66,WeatherDisplay:10.37,2013-01-15 20:40:00,
2013-01-15 15:45:00,55.8,55.8,29.97,WSW,249,0.0,0.0,100,0.13,RA,BKN,1.66,WeatherDisplay:10.37,2013-01-15 20:45:00,
2013-01-15 15:50:00,55.8,55.8,29.96,WSW,249,0.7,2.4,100,0.15,RA,BKN,1.68,WeatherDisplay:10.37,2013-01-15 20:50:00,
2013-01-15 15:55:00,55.6,55.6,29.96,NNE,30,0.0,1.1,100,0.14,RA,BKN,1.68,WeatherDisplay:10.37,2013-01-15 20:55:00,
2013-01-15 16:00:00,55.3,55.3,29.96,NE,41,0.0,0.0,100,0.14,RA,BKN,1.69,WeatherDisplay:10.37,2013-01-15 21:00:00,
2013-01-15 16:05:00,55.2,55.2,29.96,NE,40,0.0,0.0,100,0.14,RA,BKN,1.69,WeatherDisplay:10.37,2013-01-15 21:05:00,
2013-01-15 16:10:00,55.1,55.1,29.96,WSW,240,0.4,0.0,100,0.14, +RA,BKN,1.69,WeatherDisplay:10.37,2013-01-15 21:10:00,
2013-01-15 16:15:00,54.9,54.9,29.96,ENE,72,0.9,6.9,100,0.14, +RA,BKN,1.70,WeatherDisplay:10.37,2013-01-15 21:15:00,
2013-01-15 16:20:00,54.7,54.7,29.96,ESE,115,0.9,2.3,100,0.13, +RA,BKN,1.71,WeatherDisplay:10.37,2013-01-15 21:20:00,
2013-01-15 16:26:00,54.5,54.5,29.97,West,266,0.2,2.3,100,0.13, +RA,BKN,1.71,WeatherDisplay:10.37,2013-01-15 21:26:00,
2013-01-15 16:31:00,54.5,54.5,29.97,West,266,0.0,0.0,100,0.13, +RA,BKN,1.72,WeatherDisplay:10.37,2013-01-15 21:31:00,
2013-01-15 16:36:00,54.5,54.5,29.99,East,92,1.7,3.5,100,0.14, +RA,BKN,1.75,WeatherDisplay:10.37,2013-01-15 21:36:00,
2013-01-15 16:41:00,54.8,54.8,29.98,East,92,0.0,0.0,100,0.17, +RA,BKN,1.80,WeatherDisplay:10.37,2013-01-15 21:41:00,
2013-01-15 16:46:00,55.3,55.3,29.99,East,100,0.0,0.0,100,0.21, +RA,BKN,1.85,WeatherDisplay:10.37,2013-01-15 21:46:00,
2013-01-15 16:51:00,55.8,55.8,29.99,South,173,1.3,4.6,100,0.24, +RA,BKN,1.89,WeatherDisplay:10.37,2013-01-15 21:51:00,
2013-01-15 16:56:00,56.3,56.3,29.99,SSW,197,0.0,2.3,100,0.27, +RA,BKN,1.93,WeatherDisplay:10.37,2013-01-15 21:56:00,
2013-01-15 17:01:00,56.6,56.6,30.00,South,189,0.0,0.0,100,0.30, +RA,BKN,1.97,WeatherDisplay:10.37,2013-01-15 22:01:00,
2013-01-15 17:06:00,56.7,56.7,30.00,SSW,192,3.9,5.8,100,0.32, +RA,BKN,2.01,WeatherDisplay:10.37,2013-01-15 22:06:00,
2013-01-15 17:11:00,56.8,56.8,30.00,SSW,209,0.2,3.5,100,0.33, +RA,BKN,2.02,WeatherDisplay:10.37,2013-01-15 22:11:00,
2013-01-15 17:16:00,56.8,56.8,30.00,SSW,213,0.0,4.6,100,0.33, +RA,BKN,2.03,WeatherDisplay:10.37,2013-01-15 22:16:00,
2013-01-15 17:21:00,56.7,56.7,30.00,SSW,211,0.0,5.8,100,0.34, +RA,BKN,2.05,WeatherDisplay:10.37,2013-01-15 22:21:00,
2013-01-15 17:26:00,56.7,56.7,30.00,SSW,210,0.0,0.0,100,0.36, +RA,BKN,2.07,WeatherDisplay:10.37,2013-01-15 22:26:00,
2013-01-15 17:31:00,56.6,56.6,30.00,SSW,210,0.0,1.2,100,0.36, +RA,BKN,2.09,WeatherDisplay:10.37,2013-01-15 22:31:00,
2013-01-15 17:36:00,56.5,56.5,30.00,SSW,210,0.0,0.0,100,0.36, +RA,BKN,2.11,WeatherDisplay:10.37,2013-01-15 22:36:00,
2013-01-15 17:42:00,56.5,56.5,30.00,SSW,211,0.0,0.0,100,0.35, +RA,BKN,2.15,WeatherDisplay:10.37,2013-01-15 22:42:00,
2013-01-15 17:47:00,56.5,56.5,30.00,SSW,211,0.0,0.0,100,0.34, +RA,BKN,2.19,WeatherDisplay:10.37,2013-01-15 22:47:00,
2013-01-15 17:52:00,56.5,56.5,30.00,SSW,211,0.0,0.0,100,0.34, +RA,BKN,2.23,WeatherDisplay:10.37,2013-01-15 22:52:00,
2013-01-15 17:57:00,56.5,56.5,30.00,SSW,211,0.0,0.0,100,0.32, +RA,BKN,2.26,WeatherDisplay:10.37,2013-01-15 22:57:00,
2013-01-15 18:02:00,56.5,56.5,30.00,SSW,211,0.5,2.4,100,0.32,RA,BKN,2.29,WeatherDisplay:10.37,2013-01-15 23:02:00,
2013-01-15 18:07:00,56.5,56.5,30.00,SSW,211,0.1,1.2,100,0.30,RA,BKN,2.30,WeatherDisplay:10.37,2013-01-15 23:07:00,
2013-01-15 18:12:00,56.5,56.5,30.00,SSW,211,0.0,0.0,100,0.33,RA,BKN,2.35,WeatherDisplay:10.37,2013-01-15 23:12:00,
2013-01-15 18:17:00,56.5,56.5,30.00,SW,224,0.0,2.3,100,0.34,RA,BKN,2.37,WeatherDisplay:10.37,2013-01-15 23:17:00,
2013-01-15 18:22:00,56.5,56.5,30.00,SW,224,0.0,0.0,100,0.34,RA,BKN,2.39,WeatherDisplay:10.37,2013-01-15 23:22:00,
2013-01-15 18:27:00,56.4,56.4,30.00,SW,221,0.0,1.1,100,0.35,RA,BKN,2.42,WeatherDisplay:10.37,2013-01-15 23:27:00,
2013-01-15 18:32:00,56.3,56.3,30.01,WSW,252,0.0,1.1,100,0.36,RA,BKN,2.45,WeatherDisplay:10.37,2013-01-15 23:32:00,
2013-01-15 18:37:00,56.3,56.3,30.01,SW,229,1.7,3.5,100,0.36,RA,BKN,2.47,WeatherDisplay:10.37,2013-01-15 23:37:00,
2013-01-15 18:42:00,56.4,56.4,30.01,SSW,195,2.1,3.5,100,0.35,RA,BKN,2.50,WeatherDisplay:10.37,2013-01-15 23:42:00,
2013-01-15 18:47:00,56.4,56.4,30.00,SSW,195,0.0,0.0,100,0.33,RA,BKN,2.53,WeatherDisplay:10.37,2013-01-15 23:47:00,
2013-01-15 18:52:00,56.5,56.5,30.00,SSW,196,0.0,1.1,100,0.31,RA,BKN,2.55,WeatherDisplay:10.37,2013-01-15 23:52:00,
2013-01-15 18:58:00,56.5,56.5,30.00,SSW,196,0.0,0.0,100,0.31,RA,BKN,2.57,WeatherDisplay:10.37,2013-01-15 23:58:00,
2013-01-15 19:03:00,56.5,56.5,30.00,SSW,196,0.0,0.0,100,0.29,RA,BKN,2.58,WeatherDisplay:10.37,2013-01-16 00:03:00,
2013-01-15 19:08:00,56.5,56.5,30.00,SSW,196,0.0,0.0,100,0.30,RA,BKN,2.60,WeatherDisplay:10.37,2013-01-16 00:08:00,
2013-01-15 19:13:00,56.5,56.5,30.00,SSW,196,0.0,0.0,100,0.26,RA,BKN,2.61,WeatherDisplay:10.37,2013-01-16 00:13:00,
2013-01-15 19:18:00,56.5,56.5,30.00,SSW,196,0.0,0.0,100,0.26,RA,BKN,2.63,WeatherDisplay:10.37,2013-01-16 00:18:00,
2013-01-15 19:23:00,56.4,56.4,30.00,SSW,196,0.0,0.0,100,0.27,RA,BKN,2.66,WeatherDisplay:10.37,2013-01-16 00:23:00,
2013-01-15 19:28:00,56.5,56.5,30.00,SSW,196,0.3,1.1,100,0.26,RA,BKN,2.70,WeatherDisplay:10.37,2013-01-16 00:28:00,
2013-01-15 19:33:00,56.5,56.5,30.00,SSW,195,0.2,2.3,100,0.25,RA,BKN,2.71,WeatherDisplay:10.37,2013-01-16 00:33:00,
2013-01-15 19:38:00,56.8,56.8,30.00,SSW,197,0.0,2.3,100,0.27,RA,BKN,2.74,WeatherDisplay:10.37,2013-01-16 00:38:00,
2013-01-15 19:43:00,57.0,57.0,30.00,SW,220,5.4,6.9,100,0.27,RA,BKN,2.77,WeatherDisplay:10.37,2013-01-16 00:43:00,
2013-01-15 19:48:00,57.1,57.1,30.00,SSW,203,1.0,3.5,100,0.27,RA,BKN,2.80,WeatherDisplay:10.37,2013-01-16 00:48:00,
2013-01-15 19:53:00,57.1,57.1,29.99,SSW,203,0.0,1.1,100,0.26,RA,BKN,2.81,WeatherDisplay:10.37,2013-01-16 00:53:00,
2013-01-15 19:58:00,57.0,57.0,29.99,SSW,209,2.1,2.4,100,0.27,RA,BKN,2.84,WeatherDisplay:10.37,2013-01-16 00:58:00,
2013-01-15 20:03:00,57.0,57.0,30.00,SSW,209,0.0,0.0,100,0.27,RA,BKN,2.85,WeatherDisplay:10.37,2013-01-16 01:03:00,
2013-01-15 20:08:00,56.9,56.9,29.99,SSW,209,0.0,0.0,100,0.27,RA,BKN,2.87,WeatherDisplay:10.37,2013-01-16 01:08:00,
2013-01-15 20:14:00,56.9,56.9,29.99,SSW,209,0.0,0.0,100,0.27,RA,BKN,2.89,WeatherDisplay:10.37,2013-01-16 01:14:00,
2013-01-15 20:19:00,56.9,56.9,29.99,SSW,209,0.1,0.0,100,0.26,RA,BKN,2.89,WeatherDisplay:10.37,2013-01-16 01:19:00,
2013-01-15 20:24:00,56.9,56.9,29.99,SSW,209,0.0,0.0,100,0.23,RA,BKN,2.89,WeatherDisplay:10.37,2013-01-16 01:24:00,
2013-01-15 20:29:00,56.9,56.9,29.99,South,178,0.6,2.3,100,0.20,RA,BKN,2.90,WeatherDisplay:10.37,2013-01-16 01:29:00,
2013-01-15 20:34:00,57.0,57.0,29.99,East,83,0.1,1.1,100,0.19,RA,BKN,2.90,WeatherDisplay:10.37,2013-01-16 01:34:00,
2013-01-15 20:39:00,57.1,57.1,29.98,South,175,1.8,6.9,100,0.16,OVC,BKN,2.90,WeatherDisplay:10.37,2013-01-16 01:39:00,
2013-01-15 20:44:00,57.2,57.2,29.98,SW,224,8.4,12.7,100,0.13,OVC,BKN,2.90,WeatherDisplay:10.37,2013-01-16 01:44:00,
2013-01-15 20:49:00,57.4,57.4,29.98,SSW,200,0.2,8.1,100,0.10,OVC,BKN,2.90,WeatherDisplay:10.37,2013-01-16 01:49:00,
2013-01-15 20:54:00,57.7,57.7,29.97,South,178,0.1,1.1,100,0.09,OVC,BKN,2.90,WeatherDisplay:10.37,2013-01-16 01:54:00,
2013-01-15 20:59:00,57.9,57.9,29.97,SW,227,5.3,8.5,100,0.06,OVC,BKN,2.90,WeatherDisplay:10.37,2013-01-16 01:59:00,
2013-01-15 21:04:00,57.9,57.9,29.97,WSW,243,4.4,12.7,100,0.05,OVC,BKN,2.90,WeatherDisplay:10.37,2013-01-16 02:04:00,
2013-01-15 21:09:00,58.1,58.1,29.97,SW,219,0.9,9.2,100,0.03,OVC,BKN,2.90,WeatherDisplay:10.37,2013-01-16 02:09:00,
2013-01-15 21:14:00,58.2,58.2,29.97,West,263,11.7,18.4,100,0.01,OVC,BKN,2.91,WeatherDisplay:10.37,2013-01-16 02:14:00,
2013-01-15 21:19:00,58.3,58.3,29.97,SW,225,6.6,13.8,100,0.02,RA,BKN,2.91,WeatherDisplay:10.37,2013-01-16 02:19:00,
2013-01-15 21:20:00,54.1,54.1,29.99,SSE,166,0.0,6.0,100,0.02,RA,BKN,1.03,WeatherDisplay:10.37,2013-01-16 02:20:00,
2013-01-15 21:24:00,58.4,58.4,29.97,SW,215,7.2,12.1,100,0.02,RA,BKN,2.91,WeatherDisplay:10.37,2013-01-16 02:24:00,
2013-01-15 21:30:00,58.4,58.4,29.97,SSW,207,7.7,14.3,100,0.01,OVC,BKN,2.91,WeatherDisplay:10.37,2013-01-16 02:30:00,
2013-01-15 21:35:00,58.5,58.5,29.97,WSW,250,10.3,13.8,100,0.01,OVC,BKN,2.91,WeatherDisplay:10.37,2013-01-16 02:35:00,
2013-01-15 21:40:00,58.5,58.5,29.97,SSW,209,4.3,15.0,100,0.01,OVC,BKN,2.91,WeatherDisplay:10.37,2013-01-16 02:40:00,
2013-01-15 21:45:00,58.6,58.6,29.97,WSW,249,6.2,10.9,100,0.02,RA,BKN,2.92,WeatherDisplay:10.37,2013-01-16 02:45:00,
2013-01-15 21:50:00,58.5,58.5,29.97,SSW,194,1.1,6.9,100,0.02,RA,BKN,2.92,WeatherDisplay:10.37,2013-01-16 02:50:00,
2013-01-15 21:55:00,58.5,58.5,29.97,SW,218,6.4,15.0,100,0.02,OVC,BKN,2.92,WeatherDisplay:10.37,2013-01-16 02:55:00,
2013-01-15 22:00:00,58.5,58.5,29.98,SW,236,5.2,8.1,100,0.04,RA,BKN,2.94,WeatherDisplay:10.37,2013-01-16 03:00:00,
2013-01-15 22:05:00,58.5,58.5,29.98,SW,218,1.4,5.8,100,0.08, +RA,BKN,2.98,WeatherDisplay:10.37,2013-01-16 03:05:00,
2013-01-15 22:10:00,58.6,58.6,29.98,West,275,0.6,2.3,100,0.09, +RA,BKN,3.00,WeatherDisplay:10.37,2013-01-16 03:10:00,
2013-01-15 22:15:00,58.6,58.6,29.97,South,176,6.1,8.1,100,0.13, +RA,BKN,3.04,WeatherDisplay:10.37,2013-01-16 03:15:00,
2013-01-15 22:20:00,58.6,58.6,29.98,SSW,197,2.3,5.8,100,0.16, +RA,BKN,3.08,WeatherDisplay:10.37,2013-01-16 03:20:00,
2013-01-15 22:25:00,58.7,58.7,29.98,SSW,202,1.3,3.3,100,0.18, +RA,BKN,3.09,WeatherDisplay:10.37,2013-01-16 03:25:00,
2013-01-15 22:30:00,58.6,58.6,29.97,SSW,212,2.5,6.9,100,0.19, +RA,BKN,3.10,WeatherDisplay:10.37,2013-01-16 03:30:00,
2013-01-15 22:35:00,58.7,58.7,29.97,WSW,241,5.5,12.7,100,0.20, +RA,BKN,3.11,WeatherDisplay:10.37,2013-01-16 03:35:00,
2013-01-15 22:40:00,58.8,58.8,29.97,SW,218,3.5,4.6,100,0.23, +RA,BKN,3.15,WeatherDisplay:10.37,2013-01-16 03:40:00,
2013-01-15 22:46:00,58.8,58.8,29.97,SSW,209,5.8,6.9,100,0.25, +RA,BKN,3.17,WeatherDisplay:10.37,2013-01-16 03:46:00,
2013-01-15 22:51:00,58.8,58.8,29.97,WSW,248,0.1,1.1,100,0.26, +RA,BKN,3.18,WeatherDisplay:10.37,2013-01-16 03:51:00,
2013-01-15 22:56:00,58.8,58.8,29.97,South,182,0.0,2.3,100,0.28, +RA,BKN,3.20,WeatherDisplay:10.37,2013-01-16 03:56:00,
2013-01-15 23:01:00,58.8,58.8,29.98,WSW,253,1.1,5.8,100,0.28, +RA,BKN,3.23,WeatherDisplay:10.37,2013-01-16 04:01:00,
2013-01-15 23:06:00,58.8,58.8,29.97,WSW,249,4.5,10.4,100,0.25,RA,BKN,3.23,WeatherDisplay:10.37,2013-01-16 04:06:00,
2013-01-15 23:11:00,58.7,58.7,29.97,SSW,199,5.6,10.4,100,0.25,RA,BKN,3.26,WeatherDisplay:10.37,2013-01-16 04:11:00,
2013-01-15 23:16:00,58.7,58.7,29.96,SSW,202,8.1,16.1,100,0.23,RA,BKN,3.27,WeatherDisplay:10.37,2013-01-16 04:16:00,
2013-01-15 23:21:00,58.7,58.7,29.96,WSW,254,5.6,5.8,100,0.19,RA,BKN,3.27,WeatherDisplay:10.37,2013-01-16 04:21:00,
2013-01-15 23:26:00,58.8,58.8,29.96,WSW,241,4.7,8.1,100,0.18,OVC,BKN,3.27,WeatherDisplay:10.37,2013-01-16 04:26:00,
2013-01-15 23:31:00,58.8,58.8,29.96,West,259,6.3,9.2,100,0.17,OVC,BKN,3.27,WeatherDisplay:10.37,2013-01-16 04:31:00,
2013-01-15 23:36:00,58.9,58.9,29.96,SW,218,4.8,8.1,100,0.16,OVC,BKN,3.27,WeatherDisplay:10.37,2013-01-16 04:36:00,
2013-01-15 23:41:00,58.9,58.9,29.95,SW,225,3.1,4.8,100,0.14,RA,BKN,3.29,WeatherDisplay:10.37,2013-01-16 04:41:00,
2013-01-15 23:46:00,58.9,58.9,29.96,SW,234,2.5,3.6,100,0.14,RA,BKN,3.31,WeatherDisplay:10.37,2013-01-16 04:46:00,
2013-01-15 23:51:00,59.0,59.0,29.95,SW,236,6.5,12.7,100,0.13,RA,BKN,3.31,WeatherDisplay:10.37,2013-01-16 04:51:00,
2013-01-15 23:56:00,59.0,59.0,29.95,SSW,201,0.9,9.2,100,0.11,OVC,BKN,3.31,WeatherDisplay:10.37,2013-01-16 04:56:00,